Weather History for George, South Africa

Change the Weather History Date:

Wednesday, January 15, 2014

  Actual Average Record
Temperature  
Mean Temperature 69 °F -  
Max Temperature 77 °F 74 °F - (-1)
Min Temperature 61 °F 58 °F - (-1)
Cooling Degree Days 4    
Growing Degree Days 19 (Base 50)    
Moisture  
Dew Point 60 °F    
Average Humidity 71    
Maximum Humidity 83    
Minimum Humidity 56    
Precipitation  
Precipitation 0.00 in - - ()
Sea Level Pressure  
Sea Level Pressure 29.87 in    
Wind  
Wind Speed 7 mph ()    
Max Wind Speed 17 mph    
Max Gust Speed -    
Visibility 8.2 miles    
Events      
Averages and records for this station are not official NWS values.
T = Trace of Precipitation, MM = Missing Value Source: Averaged Metar Reports

Daily Weather History Graph

Daily Weather History Graph

Search for Another Location

Airport:

Trip Planner

Search our weather history database for the weather conditions in past years. The results will help you decide how hot, cold, wet, or windy it might be!

Date:

Astronomy

Jan. 15, 2014 Rise Set
Actual Time 5:34 AM SAST 7:44 PM SAST
Civil Twilight 5:06 AM SAST 8:12 PM SAST
Nautical Twilight 4:31 AM SAST 8:47 PM SAST
Astronomical Twilight 3:54 AM SAST 9:24 PM SAST
Moon 7:02 PM SAST (1/15) 4:56 AM SAST (1/15)
Length of Visible Light 15h 06m
Length of Day
14h 09m
Waxing Gibbous, 99% of the Moon is Illuminated
Jan 15
Waxing Gibbous
Jan 16
Full
Jan 24
Last Quarter
Jan 30
New
Feb 6
First Quarter

Hourly Weather History & Observations

Time (SAST) Temp. Dew Point Humidity Pressure Visibility Wind Dir Wind Speed Gust Speed Precip Events Conditions
12:00 AM 66.2 °F 55.4 °F 68% 29.74 in - North 4.6 mph - N/A   Clear
1:00 AM 64.4 °F 55.4 °F 73% 29.74 in - NNW 5.8 mph - N/A   Clear
2:00 AM 65 °F 53 °F 56% 29.72 in 12 mi WNW 5.8 mph - -  
2:00 AM 64.4 °F 53.6 °F 68% 29.71 in - WNW 3.5 mph - N/A   Clear
3:00 AM 64.4 °F 51.8 °F 64% 29.71 in - NNW 5.8 mph - N/A   Clear
4:00 AM 66.2 °F 51.8 °F 60% 29.71 in - NNW 3.5 mph - N/A   Clear
5:00 AM 61 °F 52 °F 65% 29.75 in 12 mi WSW 4.6 mph - -   Scattered Clouds
5:00 AM 60.8 °F 53.6 °F 77% 29.74 in - WSW 4.6 mph - N/A   Clear
6:00 AM 64.4 °F 53.6 °F 68% 29.77 in - NW 4.6 mph - N/A   Clear
7:00 AM 66.2 °F 55.4 °F 68% 29.83 in - West 6.9 mph - N/A   Clear
8:00 AM 68 °F 63 °F 79% 29.86 in 12 mi West 13.8 mph - -   Mostly Cloudy
8:00 AM 68.0 °F 62.6 °F 83% 29.86 in 6.2 mi West 13.8 mph - N/A   Mostly Cloudy
9:00 AM 71.6 °F 64.4 °F 78% 29.86 in 6.2 mi West 12.7 mph - N/A   Partly Cloudy
10:00 AM 75.2 °F 64.4 °F 69% 29.86 in - WSW 11.5 mph - N/A   Clear
11:00 AM 76 °F 64 °F 57% 29.88 in 12 mi SW 12.7 mph - -   Scattered Clouds
11:00 AM 77.0 °F 64.4 °F 65% 29.86 in - SW 12.7 mph - N/A   Clear
12:00 PM 77.0 °F 66.2 °F 69% 29.89 in - SSW 13.8 mph - N/A   Clear
1:00 PM 75.2 °F 64.4 °F 69% 29.89 in 6.2 mi SSW 17.3 mph - N/A   Partly Cloudy
2:00 PM 76 °F 64 °F 57% 29.92 in 12 mi SSW 11.5 mph - -   Scattered Clouds
2:00 PM 75.2 °F 64.4 °F 69% 29.92 in 6.2 mi SSW 11.5 mph - N/A   Partly Cloudy
3:00 PM 75.2 °F 64.4 °F 69% 29.92 in 6.2 mi SW 11.5 mph - N/A   Scattered Clouds
4:00 PM 75.2 °F 62.6 °F 65% 29.92 in 6.2 mi SW 12.7 mph - N/A   Scattered Clouds
5:00 PM 72 °F 62 °F 64% 29.95 in 12 mi SW 11.5 mph - -   Mostly Cloudy
5:00 PM 71.6 °F 62.6 °F 73% 29.95 in 6.2 mi SW 11.5 mph - N/A   Scattered Clouds
6:00 PM 69.8 °F 60.8 °F 73% 29.95 in 6.2 mi SSW 11.5 mph - N/A   Mostly Cloudy
7:00 PM 69.8 °F 62.6 °F 78% 29.98 in 6.2 mi SW 9.2 mph - N/A   Mostly Cloudy
8:00 PM 68 °F 63 °F 80% 30.00 in 12 mi SW 8.1 mph - -   Mostly Cloudy
8:00 PM 68.0 °F 62.6 °F 83% 29.98 in 6.2 mi SW 8.1 mph - N/A   Mostly Cloudy
9:00 PM 68.0 °F 62.6 °F 83% 30.01 in 6.2 mi SW 9.2 mph - N/A   Overcast
10:00 PM 68.0 °F 62.6 °F 83% 30.04 in 6.2 mi SW 9.2 mph - N/A   Drizzle
11:00 PM 68.0 °F 62.6 °F 83% 30.04 in 6.2 mi WSW 6.9 mph - N/A   Overcast